Time,TemperatureF,DewpointF,PressureIn,WindDirection,WindDirectionDegrees,WindSpeedMPH,WindSpeedGustMPH,Humidity,HourlyPrecipIn,Conditions,Clouds,dailyrainin,SoftwareType,DateUTC
2013-09-03 00:02:00,74.3,59.9,30.13,NNE,20,0.0,2.0,61,0.00,,,0.00,meteohub,2013-09-03 05:02:00,
2013-09-03 00:07:00,73.8,60.4,30.13,NNE,20,0.0,1.0,63,0.00,,,0.00,meteohub,2013-09-03 05:07:00,
2013-09-03 00:12:00,73.2,59.9,30.13,NNW,337,1.0,1.0,63,0.00,,,0.00,meteohub,2013-09-03 05:12:00,
2013-09-03 00:17:00,73.0,59.7,30.13,NNW,337,0.0,2.0,63,0.00,,,0.00,meteohub,2013-09-03 05:17:00,
2013-09-03 00:22:00,72.7,59.7,30.14,NNW,338,0.0,2.0,64,0.00,,,0.00,meteohub,2013-09-03 05:22:00,
2013-09-03 00:27:00,72.5,60.1,30.13,NNW,338,0.0,2.0,65,0.00,,,0.00,meteohub,2013-09-03 05:27:00,
2013-09-03 00:32:00,72.3,59.9,30.14,NNW,337,1.0,1.0,65,0.00,,,0.00,meteohub,2013-09-03 05:32:00,
2013-09-03 00:38:00,72.3,60.3,30.14,NW,318,2.0,2.0,66,0.00,,,0.00,meteohub,2013-09-03 05:38:00,
2013-09-03 00:43:00,71.8,60.3,30.14,NW,311,3.0,3.0,67,0.00,,,0.00,meteohub,2013-09-03 05:43:00,
2013-09-03 00:48:00,71.2,60.6,30.14,NW,319,2.0,3.0,69,0.00,,,0.00,meteohub,2013-09-03 05:48:00,
2013-09-03 00:53:00,70.9,60.3,30.14,NW,304,1.0,3.0,69,0.00,,,0.00,meteohub,2013-09-03 05:53:00,
2013-09-03 00:58:00,70.3,60.1,30.14,WNW,295,1.0,3.0,70,0.00,,,0.00,meteohub,2013-09-03 05:58:00,
2013-09-03 01:03:00,70.2,60.3,30.14,North,351,2.0,3.0,71,0.00,,,0.00,meteohub,2013-09-03 06:03:00,
2013-09-03 01:08:00,70.2,60.3,30.14,NNE,15,2.0,3.0,71,0.00,,,0.00,meteohub,2013-09-03 06:08:00,
2013-09-03 01:13:00,70.2,59.9,30.14,North,356,2.0,3.0,70,0.00,,,0.00,meteohub,2013-09-03 06:13:00,
2013-09-03 01:18:00,70.2,59.9,30.14,NNE,20,3.0,3.0,70,0.00,,,0.00,meteohub,2013-09-03 06:18:00,
2013-09-03 01:23:00,70.2,59.9,30.14,NE,37,3.0,3.0,70,0.00,,,0.00,meteohub,2013-09-03 06:23:00,
2013-09-03 01:28:00,70.2,59.9,30.15,NE,43,5.0,5.0,70,0.00,,,0.00,meteohub,2013-09-03 06:28:00,
2013-09-03 01:33:00,70.3,59.7,30.15,NE,56,5.0,6.0,69,0.00,,,0.00,meteohub,2013-09-03 06:33:00,
2013-09-03 01:38:00,70.3,59.7,30.14,NE,44,5.0,7.0,69,0.00,,,0.00,meteohub,2013-09-03 06:38:00,
2013-09-03 01:43:00,70.3,59.7,30.14,NE,46,7.0,7.0,69,0.00,,,0.00,meteohub,2013-09-03 06:43:00,
2013-09-03 01:48:00,70.2,59.9,30.14,NE,41,4.0,7.0,70,0.00,,,0.00,meteohub,2013-09-03 06:48:00,
2013-09-03 01:53:00,70.0,59.7,30.14,NE,46,6.0,7.0,70,0.00,,,0.00,meteohub,2013-09-03 06:53:00,
2013-09-03 01:58:00,69.6,59.7,30.14,NE,54,3.0,7.0,71,0.00,,,0.00,meteohub,2013-09-03 06:58:00,
2013-09-03 02:03:00,69.4,60.1,30.14,NE,43,3.0,6.0,72,0.00,,,0.00,meteohub,2013-09-03 07:03:00,
2013-09-03 02:08:00,69.4,60.1,30.14,NE,47,2.0,6.0,72,0.00,,,0.00,meteohub,2013-09-03 07:08:00,
2013-09-03 02:13:00,69.3,60.3,30.14,NE,53,2.0,4.0,73,0.00,,,0.00,meteohub,2013-09-03 07:13:00,
2013-09-03 02:18:00,69.3,60.3,30.13,ENE,71,1.0,4.0,73,0.00,,,0.00,meteohub,2013-09-03 07:18:00,
2013-09-03 02:23:00,69.1,60.1,30.14,NE,55,2.0,3.0,73,0.00,,,0.00,meteohub,2013-09-03 07:23:00,
2013-09-03 02:28:00,69.1,60.4,30.14,ENE,65,2.0,3.0,74,0.00,,,0.00,meteohub,2013-09-03 07:28:00,
2013-09-03 02:33:00,68.9,60.3,30.14,ENE,57,1.0,4.0,74,0.00,,,0.00,meteohub,2013-09-03 07:33:00,
2013-09-03 02:38:00,68.9,60.3,30.14,ENE,68,2.0,4.0,74,0.00,,,0.00,meteohub,2013-09-03 07:38:00,
2013-09-03 02:43:00,69.1,60.4,30.14,ENE,60,2.0,4.0,74,0.00,,,0.00,meteohub,2013-09-03 07:43:00,
2013-09-03 02:48:00,69.1,60.1,30.14,ENE,68,3.0,4.0,73,0.00,,,0.00,meteohub,2013-09-03 07:48:00,
2013-09-03 02:53:00,69.3,60.3,30.14,NE,54,4.0,5.0,73,0.00,,,0.00,meteohub,2013-09-03 07:53:00,
2013-09-03 02:58:00,69.3,60.3,30.14,NE,54,5.0,5.0,73,0.00,,,0.00,meteohub,2013-09-03 07:58:00,
2013-09-03 03:03:00,69.3,59.9,30.14,ENE,68,4.0,5.0,72,0.00,,,0.00,meteohub,2013-09-03 08:03:00,
2013-09-03 03:08:00,69.3,59.9,30.14,ENE,65,7.0,7.0,72,0.00,,,0.00,meteohub,2013-09-03 08:08:00,
2013-09-03 03:13:00,69.3,59.9,30.14,ENE,77,7.0,8.0,72,0.00,,,0.00,meteohub,2013-09-03 08:13:00,
2013-09-03 03:18:00,69.3,59.9,30.14,East,79,4.0,8.0,72,0.00,,,0.00,meteohub,2013-09-03 08:18:00,
2013-09-03 03:23:00,69.1,60.1,30.14,ENE,75,5.0,8.0,73,0.00,,,0.00,meteohub,2013-09-03 08:23:00,
2013-09-03 03:28:00,69.1,60.1,30.15,East,83,4.0,8.0,73,0.00,,,0.00,meteohub,2013-09-03 08:28:00,
2013-09-03 03:33:00,68.7,59.7,30.14,ENE,67,3.0,8.0,73,0.00,,,0.00,meteohub,2013-09-03 08:33:00,
2013-09-03 03:38:00,68.7,59.7,30.15,East,91,3.0,7.0,73,0.00,,,0.00,meteohub,2013-09-03 08:38:00,
2013-09-03 03:43:00,68.7,59.7,30.15,ENE,77,4.0,7.0,73,0.00,,,0.00,meteohub,2013-09-03 08:43:00,
2013-09-03 03:48:00,68.5,59.5,30.15,East,99,4.0,6.0,73,0.00,,,0.00,meteohub,2013-09-03 08:48:00,
2013-09-03 03:53:00,68.5,59.9,30.14,East,82,5.0,6.0,74,0.00,,,0.00,meteohub,2013-09-03 08:53:00,
2013-09-03 03:58:00,68.4,59.7,30.14,East,99,5.0,7.0,74,0.00,,,0.00,meteohub,2013-09-03 08:58:00,
2013-09-03 04:03:00,68.2,59.5,30.14,East,89,5.0,7.0,74,0.00,,,0.00,meteohub,2013-09-03 09:03:00,
2013-09-03 04:08:00,68.2,59.5,30.14,ESE,120,1.0,7.0,74,0.00,,,0.00,meteohub,2013-09-03 09:08:00,
2013-09-03 04:13:00,67.8,59.5,30.14,East,98,3.0,7.0,75,0.00,,,0.00,meteohub,2013-09-03 09:13:00,
2013-09-03 04:18:00,67.6,59.4,30.14,ESE,103,6.0,7.0,75,0.00,,,0.00,meteohub,2013-09-03 09:18:00,
2013-09-03 04:23:00,67.6,59.4,30.14,East,83,4.0,7.0,75,0.00,,,0.00,meteohub,2013-09-03 09:23:00,
2013-09-03 04:28:00,67.6,59.4,30.14,ENE,77,5.0,7.0,75,0.00,,,0.00,meteohub,2013-09-03 09:28:00,
2013-09-03 04:33:00,67.5,59.5,30.15,ENE,78,2.0,8.0,76,0.00,,,0.00,meteohub,2013-09-03 09:33:00,
2013-09-03 04:38:00,67.5,59.5,30.15,East,101,2.0,8.0,76,0.00,,,0.00,meteohub,2013-09-03 09:38:00,
2013-09-03 04:43:00,67.3,59.5,30.15,East,96,1.0,8.0,76,0.00,,,0.00,meteohub,2013-09-03 09:43:00,
2013-09-03 04:48:00,67.3,59.5,30.15,East,94,1.0,4.0,76,0.00,,,0.00,meteohub,2013-09-03 09:48:00,
2013-09-03 04:53:00,67.1,59.4,30.15,ESE,113,2.0,3.0,76,0.00,,,0.00,meteohub,2013-09-03 09:53:00,
2013-09-03 04:58:00,66.9,59.5,30.15,ESE,115,1.0,3.0,77,0.00,,,0.00,meteohub,2013-09-03 09:58:00,
2013-09-03 05:03:00,66.7,59.4,30.15,East,92,3.0,4.0,77,0.00,,,0.00,meteohub,2013-09-03 10:03:00,
2013-09-03 05:08:00,66.7,59.4,30.16,East,86,4.0,4.0,77,0.00,,,0.00,meteohub,2013-09-03 10:08:00,
2013-09-03 05:13:00,66.7,59.4,30.15,East,93,2.0,4.0,77,0.00,,,0.00,meteohub,2013-09-03 10:13:00,
2013-09-03 05:18:00,66.7,59.7,30.16,ESE,107,2.0,4.0,78,0.00,,,0.00,meteohub,2013-09-03 10:18:00,
2013-09-03 05:23:00,66.6,59.5,30.16,ESE,122,2.0,4.0,78,0.00,,,0.00,meteohub,2013-09-03 10:23:00,
2013-09-03 05:28:00,66.4,59.4,30.16,East,97,2.0,4.0,78,0.00,,,0.00,meteohub,2013-09-03 10:28:00,
2013-09-03 05:33:00,66.4,59.4,30.16,East,101,2.0,2.0,78,0.00,,,0.00,meteohub,2013-09-03 10:33:00,
2013-09-03 05:39:00,66.4,59.4,30.16,East,95,1.0,2.0,78,0.00,,,0.00,meteohub,2013-09-03 10:39:00,
2013-09-03 05:44:00,66.4,59.4,30.16,ENE,68,2.0,2.0,78,0.00,,,0.00,meteohub,2013-09-03 10:44:00,
2013-09-03 05:49:00,66.4,59.7,30.16,East,84,2.0,2.0,79,0.00,,,0.00,meteohub,2013-09-03 10:49:00,
2013-09-03 05:54:00,66.2,59.5,30.16,East,79,2.0,3.0,79,0.00,,,0.00,meteohub,2013-09-03 10:54:00,
2013-09-03 05:59:00,66.2,59.5,30.16,East,86,2.0,4.0,79,0.00,,,0.00,meteohub,2013-09-03 10:59:00,
2013-09-03 06:04:00,66.0,59.4,30.16,ENE,72,3.0,4.0,79,0.00,,,0.00,meteohub,2013-09-03 11:04:00,
2013-09-03 06:09:00,66.0,59.4,30.16,ENE,74,1.0,4.0,79,0.00,,,0.00,meteohub,2013-09-03 11:09:00,
2013-09-03 06:14:00,66.0,59.4,30.16,East,84,3.0,4.0,79,0.00,,,0.00,meteohub,2013-09-03 11:14:00,
2013-09-03 06:19:00,66.0,59.4,30.16,ENE,72,3.0,4.0,79,0.00,,,0.00,meteohub,2013-09-03 11:19:00,
2013-09-03 06:24:00,66.0,59.4,30.17,ENE,78,2.0,4.0,79,0.00,,,0.00,meteohub,2013-09-03 11:24:00,
2013-09-03 06:29:00,66.0,59.4,30.17,ENE,75,1.0,4.0,79,0.00,,,0.00,meteohub,2013-09-03 11:29:00,
2013-09-03 06:34:00,65.8,59.2,30.17,ENE,75,2.0,4.0,79,0.00,,,0.00,meteohub,2013-09-03 11:34:00,
2013-09-03 06:39:00,65.8,59.5,30.17,ENE,75,2.0,3.0,80,0.00,,,0.00,meteohub,2013-09-03 11:39:00,
2013-09-03 06:44:00,65.8,59.5,30.17,ENE,75,0.0,3.0,80,0.00,,,0.00,meteohub,2013-09-03 11:44:00,
2013-09-03 06:49:00,65.7,59.4,30.17,ENE,72,1.0,2.0,80,0.00,,,0.00,meteohub,2013-09-03 11:49:00,
2013-09-03 06:54:00,65.7,59.4,30.17,East,84,2.0,2.0,80,0.00,,,0.00,meteohub,2013-09-03 11:54:00,
2013-09-03 06:59:00,65.5,59.2,30.17,East,85,2.0,2.0,80,0.00,,,0.00,meteohub,2013-09-03 11:59:00,
2013-09-03 07:04:00,65.5,59.2,30.17,East,89,2.0,2.0,80,0.00,,,0.00,meteohub,2013-09-03 12:04:00,
2013-09-03 07:09:00,65.7,59.4,30.17,East,83,3.0,3.0,80,0.00,,,0.00,meteohub,2013-09-03 12:09:00,
2013-09-03 07:14:00,65.7,59.4,30.17,East,88,4.0,4.0,80,0.00,,,0.00,meteohub,2013-09-03 12:14:00,
2013-09-03 07:19:00,65.8,59.5,30.18,East,90,3.0,4.0,80,0.00,,,0.00,meteohub,2013-09-03 12:19:00,
2013-09-03 07:24:00,66.0,59.4,30.18,East,88,3.0,4.0,79,0.00,,,0.00,meteohub,2013-09-03 12:24:00,
2013-09-03 07:29:00,66.2,59.5,30.18,East,92,3.0,4.0,79,0.00,,,0.00,meteohub,2013-09-03 12:29:00,
2013-09-03 07:34:00,66.4,59.4,30.18,East,86,3.0,4.0,78,0.00,,,0.00,meteohub,2013-09-03 12:34:00,
2013-09-03 07:39:00,66.7,59.7,30.19,East,95,2.0,4.0,78,0.00,,,0.00,meteohub,2013-09-03 12:39:00,
2013-09-03 07:44:00,67.3,59.9,30.18,East,82,3.0,4.0,77,0.00,,,0.00,meteohub,2013-09-03 12:44:00,
2013-09-03 07:49:00,67.3,59.9,30.18,East,89,1.0,4.0,77,0.00,,,0.00,meteohub,2013-09-03 12:49:00,
2013-09-03 07:54:00,67.8,59.9,30.19,East,100,3.0,4.0,76,0.00,,,0.00,meteohub,2013-09-03 12:54:00,
2013-09-03 07:59:00,67.8,59.5,30.19,East,85,2.0,4.0,75,0.00,,,0.00,meteohub,2013-09-03 12:59:00,
2013-09-03 08:04:00,67.6,59.7,30.19,East,98,5.0,5.0,76,0.00,,,0.00,meteohub,2013-09-03 13:04:00,
2013-09-03 08:09:00,67.5,59.5,30.19,East,94,3.0,6.0,76,0.00,,,0.00,meteohub,2013-09-03 13:09:00,
2013-09-03 08:14:00,67.6,59.7,30.19,ESE,106,3.0,6.0,76,0.00,,,0.00,meteohub,2013-09-03 13:14:00,
2013-09-03 08:19:00,67.8,59.9,30.19,East,94,1.0,6.0,76,0.00,,,0.00,meteohub,2013-09-03 13:19:00,
2013-09-03 08:24:00,69.3,60.6,30.20,SSE,154,0.0,6.0,74,0.00,,,0.00,meteohub,2013-09-03 13:24:00,
2013-09-03 08:29:00,70.0,61.0,30.20,SE,124,1.0,5.0,73,0.00,,,0.00,meteohub,2013-09-03 13:29:00,
2013-09-03 08:34:00,69.8,59.9,30.20,ESE,117,6.0,6.0,71,0.00,,,0.00,meteohub,2013-09-03 13:34:00,
2013-09-03 08:39:00,70.0,60.6,30.20,SE,145,3.0,6.0,72,0.00,,,0.00,meteohub,2013-09-03 13:39:00,
2013-09-03 08:44:00,70.2,60.3,30.20,ESE,109,9.0,9.0,71,0.00,,,0.00,meteohub,2013-09-03 13:44:00,
2013-09-03 08:49:00,70.3,60.1,30.20,ESE,107,4.0,7.0,70,0.00,,,0.00,meteohub,2013-09-03 13:49:00,
2013-09-03 08:54:00,70.9,60.3,30.20,East,96,3.0,9.0,69,0.00,,,0.00,meteohub,2013-09-03 13:54:00,
2013-09-03 08:59:00,70.9,59.7,30.20,SE,124,5.0,9.0,68,0.00,,,0.00,meteohub,2013-09-03 13:59:00,
2013-09-03 09:04:00,71.2,59.7,30.19,ESE,118,6.0,7.0,67,0.00,,,0.00,meteohub,2013-09-03 14:04:00,
2013-09-03 09:09:00,71.6,59.7,30.19,ESE,111,6.0,8.0,66,0.00,,,0.00,meteohub,2013-09-03 14:09:00,
2013-09-03 09:14:00,71.8,59.7,30.19,ESE,110,5.0,8.0,66,0.00,,,0.00,meteohub,2013-09-03 14:14:00,
2013-09-03 09:19:00,72.3,59.9,30.20,ESE,106,6.0,8.0,65,0.00,,,0.00,meteohub,2013-09-03 14:19:00,
2013-09-03 09:24:00,72.5,60.1,30.20,East,95,6.0,8.0,65,0.00,,,0.00,meteohub,2013-09-03 14:24:00,
2013-09-03 09:29:00,72.7,60.3,30.20,ESE,121,5.0,8.0,65,0.00,,,0.00,meteohub,2013-09-03 14:29:00,
2013-09-03 09:34:00,72.7,59.7,30.20,SE,134,5.0,8.0,64,0.00,,,0.00,meteohub,2013-09-03 14:34:00,
2013-09-03 09:39:00,73.2,60.3,30.20,ESE,118,5.0,8.0,64,0.00,,,0.00,meteohub,2013-09-03 14:39:00,
2013-09-03 09:44:00,73.8,60.4,30.20,SSW,193,3.0,8.0,63,0.00,,,0.00,meteohub,2013-09-03 14:44:00,
2013-09-03 09:49:00,74.3,60.8,30.20,ESE,121,3.0,9.0,63,0.00,,,0.00,meteohub,2013-09-03 14:49:00,
2013-09-03 09:54:00,74.5,60.6,30.20,East,92,7.0,9.0,62,0.00,,,0.00,meteohub,2013-09-03 14:54:00,
2013-09-03 09:59:00,74.7,60.8,30.20,SE,128,5.0,9.0,62,0.00,,,0.00,meteohub,2013-09-03 14:59:00,
2013-09-03 10:04:00,74.8,61.3,30.20,SW,218,3.0,8.0,63,0.00,,,0.00,meteohub,2013-09-03 15:04:00,
2013-09-03 10:10:00,75.6,61.2,30.20,ESE,116,8.0,8.0,61,0.00,,,0.00,meteohub,2013-09-03 15:10:00,
2013-09-03 10:15:00,75.4,61.5,30.20,SE,124,5.0,8.0,62,0.00,,,0.00,meteohub,2013-09-03 15:15:00,
2013-09-03 10:20:00,76.3,61.9,30.20,SE,124,6.0,8.0,61,0.00,,,0.00,meteohub,2013-09-03 15:20:00,
2013-09-03 10:25:00,76.6,61.7,30.21,SSE,149,4.0,8.0,60,0.00,,,0.00,meteohub,2013-09-03 15:25:00,
2013-09-03 10:30:00,77.0,61.5,30.21,SSE,149,4.0,7.0,59,0.00,,,0.00,meteohub,2013-09-03 15:30:00,
2013-09-03 10:35:00,77.5,61.5,30.21,SSW,201,5.0,7.0,58,0.00,,,0.00,meteohub,2013-09-03 15:35:00,
2013-09-03 10:40:00,78.1,62.1,30.21,SW,214,1.0,9.0,58,0.00,,,0.00,meteohub,2013-09-03 15:40:00,
2013-09-03 10:45:00,79.2,62.1,30.21,SW,225,4.0,9.0,56,0.00,,,0.00,meteohub,2013-09-03 15:45:00,
2013-09-03 10:50:00,79.2,61.5,30.21,SE,145,5.0,9.0,55,0.00,,,0.00,meteohub,2013-09-03 15:50:00,
2013-09-03 10:55:00,78.3,61.7,30.21,South,181,3.0,7.0,57,0.00,,,0.00,meteohub,2013-09-03 15:55:00,
2013-09-03 11:00:00,78.6,62.1,30.21,SSE,166,2.0,8.0,57,0.00,,,0.00,meteohub,2013-09-03 16:00:00,
2013-09-03 11:05:00,78.8,61.7,30.21,SW,231,4.0,8.0,56,0.00,,,0.00,meteohub,2013-09-03 16:05:00,
2013-09-03 11:10:00,78.6,61.5,30.21,SSE,155,6.0,10.0,56,0.00,,,0.00,meteohub,2013-09-03 16:10:00,
2013-09-03 11:15:00,78.6,62.1,30.21,WSW,246,6.0,8.0,57,0.00,,,0.00,meteohub,2013-09-03 16:15:00,
2013-09-03 11:20:00,78.6,61.2,30.20,SW,229,4.0,10.0,55,0.00,,,0.00,meteohub,2013-09-03 16:20:00,
2013-09-03 11:25:00,79.3,61.2,30.20,SE,140,1.0,10.0,54,0.00,,,0.00,meteohub,2013-09-03 16:25:00,
2013-09-03 11:30:00,79.5,61.3,30.20,WSW,239,3.0,10.0,54,0.00,,,0.00,meteohub,2013-09-03 16:30:00,
2013-09-03 11:35:00,79.5,61.3,30.20,SW,233,2.0,7.0,54,0.00,,,0.00,meteohub,2013-09-03 16:35:00,
2013-09-03 11:40:00,80.4,61.7,30.20,SSE,163,2.0,7.0,53,0.00,,,0.00,meteohub,2013-09-03 16:40:00,
2013-09-03 11:45:00,80.4,61.7,30.20,SW,233,1.0,7.0,53,0.00,,,0.00,meteohub,2013-09-03 16:45:00,
2013-09-03 11:50:00,80.8,61.0,30.20,South,169,5.0,6.0,51,0.00,,,0.00,meteohub,2013-09-03 16:50:00,
2013-09-03 11:55:00,79.9,61.2,30.20,SSE,149,4.0,9.0,53,0.00,,,0.00,meteohub,2013-09-03 16:55:00,
2013-09-03 12:00:00,80.4,61.7,30.19,WNW,285,6.0,9.0,53,0.00,,,0.00,meteohub,2013-09-03 17:00:00,
2013-09-03 12:05:00,80.2,62.1,30.19,SW,236,6.0,9.0,54,0.00,,,0.00,meteohub,2013-09-03 17:05:00,
2013-09-03 12:10:00,79.9,61.2,30.19,SW,236,4.0,10.0,53,0.00,,,0.00,meteohub,2013-09-03 17:10:00,
2013-09-03 12:15:00,80.2,61.5,30.19,West,261,0.0,10.0,53,0.00,,,0.00,meteohub,2013-09-03 17:15:00,
2013-09-03 12:20:00,80.4,61.2,30.19,ENE,77,1.0,10.0,52,0.00,,,0.00,meteohub,2013-09-03 17:20:00,
2013-09-03 12:25:00,80.4,61.2,30.19,SSE,153,6.0,8.0,52,0.00,,,0.00,meteohub,2013-09-03 17:25:00,
2013-09-03 12:30:00,80.8,61.0,30.19,ESE,113,5.0,8.0,51,0.00,,,0.00,meteohub,2013-09-03 17:30:00,
2013-09-03 12:35:00,80.2,60.4,30.18,East,89,4.0,12.0,51,0.00,,,0.00,meteohub,2013-09-03 17:35:00,
2013-09-03 12:40:00,80.8,61.0,30.18,WSW,256,3.0,12.0,51,0.00,,,0.00,meteohub,2013-09-03 17:40:00,
2013-09-03 12:45:00,81.3,61.0,30.18,ESE,113,1.0,12.0,50,0.00,,,0.00,meteohub,2013-09-03 17:45:00,
2013-09-03 12:50:00,81.9,60.3,30.18,WSW,248,1.0,6.0,48,0.00,,,0.00,meteohub,2013-09-03 17:50:00,
2013-09-03 12:55:00,82.6,59.0,30.18,SW,218,2.0,5.0,45,0.00,,,0.00,meteohub,2013-09-03 17:55:00,
2013-09-03 13:00:00,82.4,60.1,30.18,ENE,60,5.0,6.0,47,0.00,,,0.00,meteohub,2013-09-03 18:00:00,
2013-09-03 13:05:00,81.7,59.5,30.17,North,358,2.0,11.0,47,0.00,,,0.00,meteohub,2013-09-03 18:05:00,
2013-09-03 13:10:00,82.2,58.8,30.17,SW,236,2.0,11.0,45,0.00,,,0.00,meteohub,2013-09-03 18:10:00,
2013-09-03 13:15:00,82.9,58.8,30.17,WSW,255,5.0,7.0,44,0.00,,,0.00,meteohub,2013-09-03 18:15:00,
2013-09-03 13:20:00,83.1,59.0,30.17,WSW,257,5.0,7.0,44,0.00,,,0.00,meteohub,2013-09-03 18:20:00,
2013-09-03 13:25:00,83.3,58.5,30.17,West,264,2.0,6.0,43,0.00,,,0.00,meteohub,2013-09-03 18:25:00,
2013-09-03 13:30:00,83.5,58.6,30.17,West,263,4.0,6.0,43,0.00,,,0.00,meteohub,2013-09-03 18:30:00,
2013-09-03 13:35:00,83.1,59.0,30.17,WSW,255,5.0,7.0,44,0.00,,,0.00,meteohub,2013-09-03 18:35:00,
2013-09-03 13:40:00,83.1,58.3,30.17,West,273,5.0,9.0,43,0.00,,,0.00,meteohub,2013-09-03 18:40:00,
2013-09-03 13:45:00,83.3,57.7,30.17,WNW,291,4.0,9.0,42,0.00,,,0.00,meteohub,2013-09-03 18:45:00,
2013-09-03 13:50:00,82.9,58.8,30.17,NW,320,2.0,11.0,44,0.00,,,0.00,meteohub,2013-09-03 18:50:00,
2013-09-03 13:55:00,83.5,59.4,30.16,SSE,149,3.0,11.0,44,0.00,,,0.00,meteohub,2013-09-03 18:55:00,
2013-09-03 14:00:00,84.2,59.9,30.16,ESE,119,2.0,11.0,44,0.00,,,0.00,meteohub,2013-09-03 19:00:00,
2013-09-03 14:05:00,84.4,59.4,30.16,SSE,160,3.0,8.0,43,0.00,,,0.00,meteohub,2013-09-03 19:05:00,
2013-09-03 14:10:00,84.4,58.8,30.16,East,86,3.0,7.0,42,0.00,,,0.00,meteohub,2013-09-03 19:10:00,
2013-09-03 14:15:00,84.2,59.4,30.15,NE,39,2.0,6.0,43,0.00,,,0.00,meteohub,2013-09-03 19:15:00,
2013-09-03 14:20:00,84.9,58.6,30.16,East,81,4.0,5.0,41,0.00,,,0.00,meteohub,2013-09-03 19:20:00,
2013-09-03 14:26:00,84.9,59.2,30.15,South,169,4.0,10.0,42,0.00,,,0.00,meteohub,2013-09-03 19:26:00,
2013-09-03 14:31:00,84.4,58.1,30.15,ESE,105,6.0,12.0,41,0.00,,,0.00,meteohub,2013-09-03 19:31:00,
2013-09-03 14:36:00,84.6,59.0,30.15,WSW,239,3.0,12.0,42,0.00,,,0.00,meteohub,2013-09-03 19:36:00,
2013-09-03 14:41:00,84.9,58.6,30.14,SE,134,1.0,12.0,41,0.00,,,0.00,meteohub,2013-09-03 19:41:00,
2013-09-03 14:46:00,85.3,58.3,30.14,SE,124,1.0,9.0,40,0.00,,,0.00,meteohub,2013-09-03 19:46:00,
2013-09-03 14:51:00,85.5,57.7,30.14,ESE,110,4.0,8.0,39,0.00,,,0.00,meteohub,2013-09-03 19:51:00,
2013-09-03 14:56:00,84.9,57.9,30.14,East,84,6.0,8.0,40,0.00,,,0.00,meteohub,2013-09-03 19:56:00,
2013-09-03 15:01:00,84.7,57.7,30.14,NE,49,7.0,13.0,40,0.00,,,0.00,meteohub,2013-09-03 20:01:00,
2013-09-03 15:06:00,85.1,58.1,30.13,NE,56,8.0,13.0,40,0.00,,,0.00,meteohub,2013-09-03 20:06:00,
2013-09-03 15:11:00,84.7,57.7,30.13,East,81,10.0,13.0,40,0.00,,,0.00,meteohub,2013-09-03 20:11:00,
2013-09-03 15:16:00,84.9,57.9,30.12,ESE,112,7.0,13.0,40,0.00,,,0.00,meteohub,2013-09-03 20:16:00,
2013-09-03 15:21:00,84.9,57.2,30.12,East,85,5.0,13.0,39,0.00,,,0.00,meteohub,2013-09-03 20:21:00,
2013-09-03 15:26:00,84.7,57.0,30.12,East,79,8.0,16.0,39,0.00,,,0.00,meteohub,2013-09-03 20:26:00,
2013-09-03 15:31:00,85.5,57.0,30.12,ENE,75,9.0,16.0,38,0.00,,,0.00,meteohub,2013-09-03 20:31:00,
2013-09-03 15:36:00,85.1,55.9,30.12,NE,49,6.0,16.0,37,0.00,,,0.00,meteohub,2013-09-03 20:36:00,
2013-09-03 15:41:00,85.5,55.4,30.12,East,81,3.0,11.0,36,0.00,,,0.00,meteohub,2013-09-03 20:41:00,
2013-09-03 15:46:00,85.6,54.9,30.12,East,98,5.0,11.0,35,0.00,,,0.00,meteohub,2013-09-03 20:46:00,
2013-09-03 15:51:00,86.0,55.2,30.12,SSE,153,2.0,11.0,35,0.00,,,0.00,meteohub,2013-09-03 20:51:00,
2013-09-03 15:56:00,86.2,55.4,30.12,East,101,6.0,13.0,35,0.00,,,0.00,meteohub,2013-09-03 20:56:00,
2013-09-03 16:01:00,86.4,54.7,30.12,ENE,77,7.0,13.0,34,0.00,,,0.00,meteohub,2013-09-03 21:01:00,
2013-09-03 16:06:00,86.4,56.3,30.12,SW,226,4.0,13.0,36,0.00,,,0.00,meteohub,2013-09-03 21:06:00,
2013-09-03 16:11:00,86.7,55.8,30.12,ESE,121,3.0,14.0,35,0.00,,,0.00,meteohub,2013-09-03 21:11:00,
2013-09-03 16:16:00,86.5,54.9,30.12,ESE,105,5.0,14.0,34,0.00,,,0.00,meteohub,2013-09-03 21:16:00,
2013-09-03 16:21:00,86.4,55.4,30.11,ESE,105,9.0,14.0,35,0.00,,,0.00,meteohub,2013-09-03 21:21:00,
2013-09-03 16:26:00,86.4,55.4,30.11,ESE,107,1.0,14.0,35,0.00,,,0.00,meteohub,2013-09-03 21:26:00,
2013-09-03 16:31:00,86.4,55.4,30.11,SE,127,0.0,11.0,35,0.00,,,0.00,meteohub,2013-09-03 21:31:00,
2013-09-03 16:36:00,87.1,55.2,30.11,ESE,108,6.0,11.0,34,0.00,,,0.00,meteohub,2013-09-03 21:36:00,
2013-09-03 16:41:00,87.6,55.0,30.11,SW,233,2.0,10.0,33,0.00,,,0.00,meteohub,2013-09-03 21:41:00,
2013-09-03 16:46:00,88.3,54.7,30.11,ESE,108,3.0,10.0,32,0.00,,,0.00,meteohub,2013-09-03 21:46:00,
2013-09-03 16:51:00,87.8,54.3,30.11,SE,129,1.0,10.0,32,0.00,,,0.00,meteohub,2013-09-03 21:51:00,
2013-09-03 16:56:00,87.6,54.1,30.11,ESE,119,5.0,9.0,32,0.00,,,0.00,meteohub,2013-09-03 21:56:00,
2013-09-03 17:01:00,87.3,53.8,30.10,ESE,110,5.0,10.0,32,0.00,,,0.00,meteohub,2013-09-03 22:01:00,
2013-09-03 17:06:00,87.6,55.8,30.11,SSE,155,2.0,10.0,34,0.00,,,0.00,meteohub,2013-09-03 22:06:00,
2013-09-03 17:11:00,88.2,54.5,30.10,ESE,113,4.0,10.0,32,0.00,,,0.00,meteohub,2013-09-03 22:11:00,
2013-09-03 17:16:00,87.4,54.9,30.10,ESE,110,4.0,9.0,33,0.00,,,0.00,meteohub,2013-09-03 22:16:00,
2013-09-03 17:21:00,88.3,56.5,30.10,SW,215,4.0,9.0,34,0.00,,,0.00,meteohub,2013-09-03 22:21:00,
2013-09-03 17:26:00,88.9,56.1,30.10,SE,142,0.0,9.0,33,0.00,,,0.00,meteohub,2013-09-03 22:26:00,
2013-09-03 17:31:00,88.9,54.3,30.10,SW,217,1.0,6.0,31,0.00,,,0.00,meteohub,2013-09-03 22:31:00,
2013-09-03 17:36:00,88.5,54.0,30.10,ESE,116,6.0,6.0,31,0.00,,,0.00,meteohub,2013-09-03 22:36:00,
2013-09-03 17:41:00,88.5,55.8,30.10,SSW,203,2.0,7.0,33,0.00,,,0.00,meteohub,2013-09-03 22:41:00,
2013-09-03 17:46:00,89.1,56.3,30.10,SW,218,0.0,7.0,33,0.00,,,0.00,meteohub,2013-09-03 22:46:00,
2013-09-03 17:51:00,88.3,57.2,30.10,ENE,71,4.0,7.0,35,0.00,,,0.00,meteohub,2013-09-03 22:51:00,
2013-09-03 17:56:00,87.4,57.2,30.10,ESE,105,3.0,9.0,36,0.00,,,0.00,meteohub,2013-09-03 22:56:00,
2013-09-03 18:01:00,87.3,57.7,30.10,East,96,6.0,9.0,37,0.00,,,0.00,meteohub,2013-09-03 23:01:00,
2013-09-03 18:06:00,87.3,56.3,30.10,SSE,158,4.0,10.0,35,0.00,,,0.00,meteohub,2013-09-03 23:06:00,
2013-09-03 18:11:00,87.1,56.1,30.10,SSW,209,1.0,10.0,35,0.00,,,0.00,meteohub,2013-09-03 23:11:00,
2013-09-03 18:16:00,87.1,56.8,30.10,ESE,113,4.0,7.0,36,0.00,,,0.00,meteohub,2013-09-03 23:16:00,
2013-09-03 18:21:00,87.1,56.8,30.10,ESE,113,4.0,9.0,36,0.00,,,0.00,meteohub,2013-09-03 23:21:00,
2013-09-03 18:26:00,87.1,55.2,30.10,SE,133,2.0,9.0,34,0.00,,,0.00,meteohub,2013-09-03 23:26:00,
2013-09-03 18:31:00,87.3,56.3,30.10,ESE,121,3.0,9.0,35,0.00,,,0.00,meteohub,2013-09-03 23:31:00,
2013-09-03 18:36:00,87.1,57.6,30.10,ESE,113,6.0,7.0,37,0.00,,,0.00,meteohub,2013-09-03 23:36:00,
2013-09-03 18:41:00,86.7,57.4,30.10,ESE,105,5.0,7.0,37,0.00,,,0.00,meteohub,2013-09-03 23:41:00,
2013-09-03 18:46:00,86.5,57.9,30.10,ESE,108,6.0,7.0,38,0.00,,,0.00,meteohub,2013-09-03 23:46:00,
2013-09-03 18:51:00,86.4,58.5,30.10,East,84,4.0,7.0,39,0.00,,,0.00,meteohub,2013-09-03 23:51:00,
2013-09-03 18:57:00,86.4,59.2,30.10,East,84,4.0,7.0,40,0.00,,,0.00,meteohub,2013-09-03 23:57:00,
2013-09-03 19:02:00,86.2,58.3,30.10,ESE,108,4.0,7.0,39,0.00,,,0.00,meteohub,2013-09-04 00:02:00,
2013-09-03 19:07:00,86.2,59.0,30.09,East,92,5.0,7.0,40,0.00,,,0.00,meteohub,2013-09-04 00:07:00,
2013-09-03 19:12:00,86.2,59.7,30.09,ENE,71,8.0,8.0,41,0.00,,,0.00,meteohub,2013-09-04 00:12:00,
2013-09-03 19:17:00,85.8,57.9,30.09,East,94,7.0,10.0,39,0.00,,,0.00,meteohub,2013-09-04 00:17:00,
2013-09-03 19:22:00,85.8,57.9,30.09,East,81,5.0,10.0,39,0.00,,,0.00,meteohub,2013-09-04 00:22:00,
2013-09-03 19:27:00,85.6,58.5,30.09,East,101,6.0,10.0,40,0.00,,,0.00,meteohub,2013-09-04 00:27:00,
2013-09-03 19:32:00,85.5,58.5,30.09,East,89,5.0,10.0,40,0.00,,,0.00,meteohub,2013-09-04 00:32:00,
2013-09-03 19:37:00,85.3,58.3,30.10,ESE,103,4.0,9.0,40,0.00,,,0.00,meteohub,2013-09-04 00:37:00,
2013-09-03 19:42:00,84.9,58.6,30.09,East,86,7.0,9.0,41,0.00,,,0.00,meteohub,2013-09-04 00:42:00,
2013-09-03 19:47:00,84.6,58.3,30.09,East,98,8.0,8.0,41,0.00,,,0.00,meteohub,2013-09-04 00:47:00,
2013-09-03 19:52:00,84.4,58.1,30.10,East,97,6.0,9.0,41,0.00,,,0.00,meteohub,2013-09-04 00:52:00,
2013-09-03 19:57:00,84.0,58.5,30.10,ESE,103,5.0,9.0,42,0.00,,,0.00,meteohub,2013-09-04 00:57:00,
2013-09-03 20:02:00,83.7,58.8,30.10,SE,124,3.0,9.0,43,0.00,,,0.00,meteohub,2013-09-04 01:02:00,
2013-09-03 20:07:00,83.3,59.2,30.10,ESE,115,7.0,9.0,44,0.00,,,0.00,meteohub,2013-09-04 01:07:00,
2013-09-03 20:12:00,83.1,59.5,30.10,East,90,5.0,8.0,45,0.00,,,0.00,meteohub,2013-09-04 01:12:00,
2013-09-03 20:17:00,82.8,59.9,30.10,East,83,5.0,8.0,46,0.00,,,0.00,meteohub,2013-09-04 01:17:00,
2013-09-03 20:22:00,82.6,60.3,30.10,East,82,4.0,8.0,47,0.00,,,0.00,meteohub,2013-09-04 01:22:00,
2013-09-03 20:27:00,82.2,59.9,30.10,East,89,3.0,8.0,47,0.00,,,0.00,meteohub,2013-09-04 01:27:00,
2013-09-03 20:32:00,81.9,60.3,30.10,ESE,102,4.0,7.0,48,0.00,,,0.00,meteohub,2013-09-04 01:32:00,
2013-09-03 20:37:00,81.7,60.1,30.10,East,100,5.0,7.0,48,0.00,,,0.00,meteohub,2013-09-04 01:37:00,
2013-09-03 20:42:00,81.5,60.4,30.10,East,96,3.0,7.0,49,0.00,,,0.00,meteohub,2013-09-04 01:42:00,
2013-09-03 20:47:00,81.3,60.3,30.10,East,95,7.0,7.0,49,0.00,,,0.00,meteohub,2013-09-04 01:47:00,
2013-09-03 20:52:00,81.1,60.1,30.11,East,86,4.0,8.0,49,0.00,,,0.00,meteohub,2013-09-04 01:52:00,
2013-09-03 20:57:00,81.0,60.6,30.11,ESE,105,4.0,8.0,50,0.00,,,0.00,meteohub,2013-09-04 01:57:00,
2013-09-03 21:02:00,80.8,60.4,30.11,ESE,118,5.0,8.0,50,0.00,,,0.00,meteohub,2013-09-04 02:02:00,
2013-09-03 21:07:00,80.4,60.6,30.11,East,99,3.0,7.0,51,0.00,,,0.00,meteohub,2013-09-04 02:07:00,
2013-09-03 21:12:00,80.2,60.4,30.12,East,86,4.0,7.0,51,0.00,,,0.00,meteohub,2013-09-04 02:12:00,
2013-09-03 21:17:00,80.2,60.4,30.12,East,90,5.0,6.0,51,0.00,,,0.00,meteohub,2013-09-04 02:17:00,
2013-09-03 21:22:00,80.1,60.8,30.12,East,94,5.0,6.0,52,0.00,,,0.00,meteohub,2013-09-04 02:22:00,
2013-09-03 21:27:00,79.9,60.6,30.12,East,100,7.0,7.0,52,0.00,,,0.00,meteohub,2013-09-04 02:27:00,
2013-09-03 21:32:00,79.7,61.0,30.12,ESE,107,7.0,9.0,53,0.00,,,0.00,meteohub,2013-09-04 02:32:00,
2013-09-03 21:37:00,79.3,60.8,30.12,East,80,6.0,9.0,53,0.00,,,0.00,meteohub,2013-09-04 02:37:00,
2013-09-03 21:42:00,79.3,60.8,30.13,East,98,5.0,9.0,53,0.00,,,0.00,meteohub,2013-09-04 02:42:00,
2013-09-03 21:47:00,79.2,60.6,30.13,ESE,103,7.0,11.0,53,0.00,,,0.00,meteohub,2013-09-04 02:47:00,
2013-09-03 21:52:00,79.2,60.6,30.13,East,99,8.0,11.0,53,0.00,,,0.00,meteohub,2013-09-04 02:52:00,
2013-09-03 21:57:00,79.0,60.4,30.13,ESE,105,8.0,12.0,53,0.00,,,0.00,meteohub,2013-09-04 02:57:00,
2013-09-03 22:02:00,78.8,60.3,30.13,ESE,110,9.0,12.0,53,0.00,,,0.00,meteohub,2013-09-04 03:02:00,
2013-09-03 22:07:00,78.6,60.1,30.13,ESE,113,7.0,12.0,53,0.00,,,0.00,meteohub,2013-09-04 03:07:00,
2013-09-03 22:12:00,78.4,59.9,30.13,East,91,7.0,13.0,53,0.00,,,0.00,meteohub,2013-09-04 03:12:00,
2013-09-03 22:17:00,78.1,60.1,30.13,East,89,12.0,13.0,54,0.00,,,0.00,meteohub,2013-09-04 03:17:00,
2013-09-03 22:22:00,77.9,59.9,30.13,East,99,10.0,13.0,54,0.00,,,0.00,meteohub,2013-09-04 03:22:00,
2013-09-03 22:27:00,77.5,59.5,30.13,ESE,115,10.0,13.0,54,0.00,,,0.00,meteohub,2013-09-04 03:27:00,
2013-09-03 22:32:00,77.4,59.9,30.13,East,101,8.0,13.0,55,0.00,,,0.00,meteohub,2013-09-04 03:32:00,
2013-09-03 22:37:00,77.2,59.7,30.13,ESE,111,6.0,11.0,55,0.00,,,0.00,meteohub,2013-09-04 03:37:00,
2013-09-03 22:42:00,76.8,59.4,30.13,ESE,103,8.0,11.0,55,0.00,,,0.00,meteohub,2013-09-04 03:42:00,
2013-09-03 22:47:00,76.5,59.5,30.13,ESE,106,8.0,11.0,56,0.00,,,0.00,meteohub,2013-09-04 03:47:00,
2013-09-03 22:52:00,76.3,59.9,30.13,East,95,4.0,11.0,57,0.00,,,0.00,meteohub,2013-09-04 03:52:00,
2013-09-03 22:57:00,75.9,59.5,30.13,ESE,118,5.0,11.0,57,0.00,,,0.00,meteohub,2013-09-04 03:57:00,
2013-09-03 23:01:00,75.7,59.9,30.14,East,96,6.0,10.0,58,0.00,,,0.00,meteohub,2013-09-04 04:01:00,
2013-09-03 23:06:00,75.6,59.7,30.14,East,92,6.0,10.0,58,0.00,,,0.00,meteohub,2013-09-04 04:06:00,
2013-09-03 23:11:00,75.4,59.5,30.14,ESE,116,2.0,9.0,58,0.00,,,0.00,meteohub,2013-09-04 04:11:00,
2013-09-03 23:16:00,75.4,59.5,30.14,ESE,114,6.0,9.0,58,0.00,,,0.00,meteohub,2013-09-04 04:16:00,
2013-09-03 23:21:00,75.2,59.4,30.14,ESE,106,7.0,12.0,58,0.00,,,0.00,meteohub,2013-09-04 04:21:00,
2013-09-03 23:26:00,75.0,59.2,30.14,ESE,116,7.0,12.0,58,0.00,,,0.00,meteohub,2013-09-04 04:26:00,
2013-09-03 23:31:00,74.8,59.0,30.14,ESE,113,4.0,12.0,58,0.00,,,0.00,meteohub,2013-09-04 04:31:00,
2013-09-03 23:36:00,74.8,59.0,30.14,SE,124,6.0,11.0,58,0.00,,,0.00,meteohub,2013-09-04 04:36:00,
2013-09-03 23:41:00,74.7,59.4,30.14,SE,124,3.0,11.0,59,0.00,,,0.00,meteohub,2013-09-04 04:41:00,
2013-09-03 23:46:00,74.5,59.2,30.14,ESE,119,2.0,10.0,59,0.00,,,0.00,meteohub,2013-09-04 04:46:00,
2013-09-03 23:52:00,74.1,59.4,30.14,ESE,118,1.0,7.0,60,0.00,,,0.00,meteohub,2013-09-04 04:52:00,
2013-09-03 23:57:00,73.9,59.2,30.15,SE,127,3.0,6.0,60,0.00,,,0.00,meteohub,2013-09-04 04:57:00,